Tracking 30986 objects as of 9-Jul-2025
HD Live streaming from Space Station
objects crossing your sky now

STARLINK-5399

Track STARLINK-5399 now!
10-day predictions
STARLINK-5399 is classified as:


NORAD ID: 54788
Int'l Code: 2022-175AG
Perigee: 545.9 km
Apogee: 547.9 km
Inclination: 53.2 °
Period: 95.4 minutes
Semi major axis: 6917 km
RCS: Unknown
Launch date: December 17, 2022
Source: United States (US)
Launch site: AIR FORCE EASTERN TEST RANGE (AFETR)
Your satellite tracking list
Your tracking list is empty




NASA's NSSDC Master Catalog

Two Line Element Set (TLE):
1 54788U 22175AG  25190.00732670 -.00000718  00000-0 -27005-4 0  9997
2 54788  53.2193  42.9181 0001401  93.0904 267.0248 15.08837684143347
Source of the keplerian elements: AFSPC